EW7074 Weather Reports


Display with metric or nautical units.
time (UTC)temp
F
wind
direction
speed
MPH
gust
MPH
rain 1hr
in
rain 24hr
in
rain mn
in
humidity
%
barometer
mb
20260506213243 83 58 0.0 3.0 0.00 0.00 0.00 75 1011.1
20260506212732 83 62 0.0 3.0 0.00 0.00 0.00 74 1011.1
20260506212224 83 62 0.0 5.0 0.00 0.00 0.00 73 1011.0
20260506211713 83 58 1.0 5.0 0.00 0.00 0.00 73 1011.0
20260506211203 84 72 1.0 4.0 0.00 0.00 0.00 72 1011.0
20260506210651 84 73 1.0 4.0 0.00 0.00 0.00 71 1011.0
20260506210142 85 69 1.0 4.0 0.00 0.00 0.00 70 1011.1
20260506205632 85 72 0.0 4.0 0.00 0.00 0.00 69 1011.1
20260506205120 86 75 0.0 4.0 0.00 0.00 0.00 67 1011.1
20260506204611 87 62 0.0 3.0 0.00 0.00 0.00 66 1011.1
20260506204101 88 62 0.0 0.0 0.00 0.00 0.00 64 1011.1
20260506203544 88 62 0.0 0.0 0.00 0.00 0.00 63 1011.1
20260506203030 89 60 0.0 3.0 0.00 0.00 0.00 62 1011.1
20260506202515 89 62 0.0 3.0 0.00 0.00 0.00 60 1011.1
20260506202006 90 37 0.0 0.0 0.00 0.00 0.00 58 1011.1
20260506201453 90 37 0.0 0.0 0.00 0.00 0.00 57 1011.2
20260506200942 91 37 0.0 0.0 0.00 0.00 0.00 57 1011.2
20260506200433 91 37 0.0 0.0 0.00 0.00 0.00 56 1011.3
20260506195923 91 35 0.0 1.0 0.00 0.00 0.00 55 1011.4
20260506195412 92 35 0.0 1.0 0.00 0.00 0.00 55 1011.4
20260506194856 92 4 0.0 1.0 0.00 0.00 0.00 55 1011.4
20260506194617 92 12 0.0 0.0 0.00 0.00 0.00 55 1011.4
20260506193832 92 12 0.0 1.0 0.00 0.00 0.00 55 1011.5
20260506193103 92 14 0.0 1.0 0.00 0.00 0.00 55 1011.5
20260506192601 92 14 0.0 1.0 0.00 0.00 0.00 55 1011.5
20260506191827 92 353 0.0 1.0 0.00 0.00 0.00 55 1011.5
20260506191323 92 358 0.0 1.0 0.00 0.00 0.00 56 1011.5
20260506190324 92 14 0.0 1.0 0.00 0.00 0.00 56 1011.5
20260506185824 92 338 0.0 1.0 0.00 0.00 0.00 56 1011.6
20260506185322 91 339 0.0 2.0 0.00 0.00 0.00 56 1011.6
20260506184818 91 13 0.0 2.0 0.00 0.00 0.00 56 1011.6
20260506184318 91 37 0.0 4.0 0.00 0.00 0.00 56 1011.5
20260506184048 91 341 0.0 4.0 0.00 0.00 0.00 56 1011.5
20260506183317 91 31 0.0 3.0 0.00 0.00 0.00 56 1011.6
20260506182818 91 342 1.0 5.0 0.00 0.00 0.00 55 1011.7
20260506182316 92 10 1.0 7.0 0.00 0.00 0.00 55 1011.7
20260506182046 92 339 1.0 7.0 0.00 0.00 0.00 55 1011.8
20260506181315 92 347 1.0 5.0 0.00 0.00 0.00 55 1011.9
20260506180814 92 339 1.0 5.0 0.00 0.00 0.00 56 1011.8
20260506180312 92 341 1.0 7.0 0.00 0.00 0.00 55 1011.9
20260506175802 92 335 1.0 7.0 0.00 0.00 0.00 55 1012.0
20260506175300 92 18 0.0 4.0 0.00 0.00 0.00 55 1012.0
20260506174759 92 353 1.0 9.0 0.00 0.00 0.00 56 1012.1
20260506174259 92 2 1.0 9.0 0.00 0.00 0.00 55 1012.1
20260506173800 92 27 2.0 11.0 0.00 0.00 0.00 56 1012.2
20260506173257 92 303 3.0 11.0 0.00 0.00 0.00 56 1012.3
20260506172300 92 314 2.0 10.0 0.00 0.00 0.00 56 1012.5
20260506172253 92 341 2.0 10.0 0.00 0.00 0.00 56 1012.5
20260506171519 92 299 1.0 9.0 0.00 0.00 0.00 57 1012.5
20260506170747 92 348 1.0 9.0 0.00 0.00 0.00 57 1012.6
20260506170510 92 310 1.0 10.0 0.00 0.00 0.00 56 1012.7
20260506170008 91 8 1.0 10.0 0.00 0.00 0.00 57 1012.7
20260506165237 91 350 1.0 8.0 0.00 0.00 0.00 57 1012.8
20260506164737 91 337 1.0 8.0 0.00 0.00 0.00 58 1012.9
20260506164237 91 314 1.0 7.0 0.00 0.00 0.00 58 1013.0
20260506163734 90 331 1.0 7.0 0.00 0.00 0.00 59 1013.1
20260506163228 90 318 1.0 5.0 0.00 0.00 0.00 58 1013.2
20260506162729 90 333 1.0 7.0 0.00 0.00 0.00 59 1013.3
20260506162229 90 297 1.0 8.0 0.00 0.00 0.00 58 1013.3
20260506161736 90 335 1.0 7.0 0.00 0.00 0.00 59 1013.6
20260506161726 90 7 1.0 7.0 0.00 0.00 0.00 59 1013.5
20260506160719 90 344 0.0 6.0 0.00 0.00 0.00 58 1013.6
20260506160442 90 358 0.0 3.0 0.00 0.00 0.00 60 1013.9
20260506155708 90 37 1.0 5.0 0.00 0.00 0.00 61 1014.0
20260506155207 89 35 1.0 5.0 0.00 0.00 0.00 61 1014.0
20260506154709 88 283 2.0 7.0 0.00 0.00 0.00 61 1014.2
20260506154205 88 306 2.0 8.0 0.00 0.00 0.00 61 1014.2
20260506153945 88 299 2.0 10.0 0.00 0.00 0.00 61 1014.3
20260506153153 89 311 1.0 10.0 0.00 0.00 0.00 61 1014.5
20260506152702 89 311 2.0 8.0 0.00 0.00 0.00 61 1014.5
20260506152150 89 312 1.0 8.0 0.00 0.00 0.00 61 1014.6
20260506151646 88 329 0.0 3.0 0.00 0.00 0.00 62 1014.8
20260506151141 88 267 0.0 5.0 0.00 0.00 0.00 61 1014.9
20260506150640 88 295 0.0 6.0 0.00 0.00 0.00 62 1015.0
20260506150134 88 264 1.0 7.0 0.00 0.00 0.00 61 1015.0
20260506145630 88 359 2.0 8.0 0.00 0.00 0.00 63 1015.1
20260506145120 87 18 1.0 8.0 0.00 0.00 0.00 62 1015.1
20260506144616 87 310 0.0 5.0 0.00 0.00 0.00 63 1015.2
20260506144115 86 272 0.0 4.0 0.00 0.00 0.00 65 1015.2
20260506143611 85 270 0.0 4.0 0.00 0.00 0.00 66 1015.2
20260506143334 84 168 0.0 2.0 0.00 0.00 0.00 67 1015.3
20260506142602 83 131 0.0 2.0 0.00 0.00 0.00 68 1015.2
20260506142102 83 197 0.0 4.0 0.00 0.00 0.00 71 1015.3
20260506141550 82 207 1.0 4.0 0.00 0.00 0.00 72 1015.3
20260506141048 82 208 1.0 5.0 0.00 0.00 0.00 73 1015.5
20260506140541 81 237 1.0 5.0 0.00 0.00 0.00 73 1015.5
20260506140306 80 224 2.0 6.0 0.00 0.00 0.00 76 1015.7
20260506140140 81 260 2.0 6.0 0.00 0.00 0.00 74 1015.6
20260506135028 80 199 0.0 1.0 0.00 0.00 0.00 77 1015.8
20260506133958 79 199 1.0 4.0 0.00 0.00 0.00 77 1016.0
20260506133717 80 199 1.0 4.0 0.00 0.00 0.00 77 1016.1
20260506132940 80 207 0.0 4.0 0.00 0.00 0.00 76 1016.2
20260506132424 80 200 0.0 2.0 0.00 0.00 0.00 76 1016.0
20260506131914 80 199 0.0 0.0 0.00 0.00 0.00 76 1016.1
20260506131403 79 199 0.0 0.0 0.00 0.00 0.00 77 1015.9
20260506130839 78 199 0.0 0.0 0.00 0.00 0.00 78 1016.0
20260506130600 78 200 0.0 2.0 0.00 0.00 0.00 79 1016.0
20260506130050 78 200 0.0 3.0 0.00 0.00 0.00 79 1016.2
20260506125310 77 191 0.0 3.0 0.00 0.00 0.00 81 1016.3
20260506124747 77 203 1.0 3.0 0.00 0.00 0.00 81 1016.6
20260506124508 76 199 0.0 4.0 0.00 0.00 0.00 81 1016.6
20260506123728 76 202 0.0 4.0 0.00 0.00 0.00 81 1016.6
20260506123228 76 204 0.0 0.0 0.00 0.00 0.00 82 1016.7
20260506122719 76 204 0.0 0.0 0.00 0.00 0.00 82 1016.4
20260506122210 75 204 0.0 3.0 0.00 0.00 0.00 83 1016.6
20260506121650 75 204 0.0 3.0 0.00 0.00 0.00 83 1016.3
20260506121139 75 226 0.0 2.0 0.00 0.00 0.00 83 1016.4
20260506120630 75 238 0.0 2.0 0.00 0.00 0.00 83 1016.5
20260506120111 74 197 0.0 0.0 0.00 0.00 0.00 84 1016.5
20260506115601 74 197 0.0 0.0 0.00 0.00 0.00 85 1016.3
20260506115050 73 197 0.0 0.0 0.00 0.00 0.00 85 1016.3
20260506114539 73 197 0.0 0.0 0.00 0.00 0.00 86 1016.4
20260506114018 72 197 0.0 0.0 0.00 0.00 0.00 86 1016.4
20260506113508 72 197 0.0 0.0 0.00 0.00 0.00 87 1016.5
20260506112437 71 197 0.0 0.0 0.00 0.00 0.00 88 1016.5
20260506111919 71 197 0.0 1.0 0.00 0.00 0.00 88 1016.4
20260506111411 71 197 0.0 2.0 0.00 0.00 0.00 89 1016.4
20260506110858 71 197 1.0 4.0 0.00 0.00 0.00 89 1016.4
20260506110356 70 197 1.0 4.0 0.00 0.00 0.00 90 1016.4
20260506105855 70 197 0.0 2.0 0.00 0.00 0.00 90 1016.3
20260506104841 69 195 0.0 1.0 0.00 0.02 0.00 91 1016.1
20260506104610 69 195 0.0 3.0 0.00 0.02 0.00 91 1016.1
20260506103837 69 195 0.0 3.0 0.00 0.02 0.00 91 1016.0
20260506103313 68 162 0.0 2.0 0.00 0.02 0.00 91 1016.0
20260506102813 68 155 0.0 0.0 0.00 0.02 0.00 91 1015.8
20260506102308 68 54 0.0 0.0 0.00 0.02 0.00 91 1015.8
20260506101808 67 54 0.0 0.0 0.00 0.02 0.00 91 1015.7
20260506101306 67 54 0.0 0.0 0.00 0.02 0.00 91 1015.6
20260506100804 67 54 0.0 0.0 0.00 0.02 0.00 91 1015.5
20260506100311 68 147 0.0 0.0 0.00 0.02 0.00 92 1015.4
20260506100305 68 53 0.0 0.0 0.00 0.02 0.00 91 1015.3
20260506095306 68 147 0.0 0.0 0.00 0.02 0.00 92 1015.4
20260506094804 68 147 0.0 0.0 0.00 0.02 0.00 92 1015.5
20260506094303 68 147 0.0 0.0 0.00 0.02 0.00 92 1015.4
20260506093803 68 147 0.0 0.0 0.00 0.02 0.00 92 1015.5
20260506093301 68 147 0.0 0.0 0.00 0.02 0.00 92 1015.5
20260506092800 68 147 0.0 0.0 0.00 0.02 0.00 92 1015.5
20260506092301 68 147 0.0 0.0 0.00 0.02 0.00 92 1015.3
20260506091800 68 147 0.0 0.0 0.00 0.02 0.00 92 1015.3
20260506091258 67 147 0.0 0.0 0.00 0.02 0.00 92 1015.4
20260506091026 67 70 0.0 0.0 0.00 0.02 0.00 92 1015.3
20260506090256 67 68 0.0 0.0 0.00 0.02 0.00 92 1015.3
20260506085754 67 66 0.0 0.0 0.00 0.02 0.00 92 1015.3
20260506085255 66 66 0.0 0.0 0.00 0.02 0.00 92 1015.2
20260506084754 66 66 0.0 0.0 0.00 0.02 0.00 91 1015.2
20260506084255 66 66 0.0 0.0 0.00 0.02 0.00 92 1015.1
20260506083754 66 66 0.0 0.0 0.00 0.02 0.00 92 1015.1
20260506083254 66 66 0.0 0.0 0.00 0.02 0.00 91 1015.2
20260506082753 66 66 0.0 0.0 0.00 0.02 0.00 91 1015.2
20260506082252 66 66 0.0 0.0 0.00 0.02 0.00 91 1015.2
20260506081752 66 66 0.0 0.0 0.00 0.02 0.00 91 1015.1
20260506081250 66 66 0.0 0.0 0.00 0.02 0.00 91 1015.1
20260506080750 66 66 0.0 0.0 0.00 0.02 0.00 91 1015.1
20260506080243 66 66 0.0 0.0 0.00 0.02 0.00 91 1015.1
20260506073221 66 66 0.0 0.0 0.00 0.02 0.00 91 1015.5
20260506072213 66 66 0.0 0.0 0.00 0.02 0.00 91 1015.6
20260506071711 66 66 0.0 0.0 0.00 0.02 0.00 91 1015.6
20260506071207 66 66 0.0 0.0 0.00 0.02 0.00 91 1015.6
20260506070659 66 66 0.0 0.0 0.00 0.02 0.00 91 1015.7
20260506070150 67 66 0.0 0.0 0.00 0.02 0.00 91 1015.6
20260506062118 67 66 0.0 0.0 0.00 0.02 0.00 90 1015.9
20260506061619 67 66 0.0 0.0 0.00 0.02 0.00 90 1015.9
20260506061108 67 66 0.0 0.0 0.00 0.02 0.00 90 1015.9
20260506060608 67 66 0.0 0.0 0.00 0.02 0.00 90 1016.0
20260506050910 69 66 0.0 0.0 0.00 0.02 0.00 89 1016.0
20260506050400 69 66 0.0 0.0 0.00 0.02 0.00 89 1016.0
20260506050122 69 66 0.0 0.0 0.00 0.02 0.00 89 1016.0
20260506045102 69 66 0.0 0.0 0.00 0.02 0.00 89 1015.9
20260506043811 69 50 0.0 0.0 0.00 0.02 0.00 88 1016.0
20260506043301 70 50 0.0 0.0 0.00 0.02 0.00 88 1015.9
20260506042752 70 50 0.0 0.0 0.00 0.02 0.00 88 1015.8
20260506042241 70 67 0.0 0.0 0.00 0.02 0.00 88 1015.6
20260506041727 70 67 0.0 0.0 0.00 0.02 0.00 88 1015.5
20260506041216 70 68 0.0 0.0 0.00 0.02 0.00 88 1015.6
20260506040707 70 67 0.0 0.0 0.00 0.02 0.00 88 1015.6
20260506040152 71 67 0.0 0.0 0.00 0.02 0.00 88 1015.6
20260506035911 71 67 0.0 0.0 0.00 0.02 0.00 88 1015.5
20260506035121 71 68 0.0 3.0 0.00 0.02 0.00 88 1015.5
20260506034841 71 67 0.0 3.0 0.00 0.02 0.00 88 1015.5
20260506034058 71 72 0.0 2.0 0.00 0.02 0.00 88 1015.4
20260506034048 71 71 0.0 2.0 0.00 0.02 0.00 87 1015.5
20260506033310 71 71 0.0 0.0 0.00 0.02 0.00 87 1015.4
20260506032525 71 71 0.0 3.0 0.00 0.02 0.00 87 1015.4
20260506032241 71 71 0.0 3.0 0.00 0.02 0.00 87 1015.3
20260506031456 71 68 0.0 0.0 0.00 0.02 0.00 87 1015.5
20260506030951 71 68 0.0 0.0 0.00 0.02 0.00 87 1015.5
20260506030439 71 68 0.0 0.0 0.00 0.02 0.00 87 1015.4
20260506030146 71 68 0.0 0.0 0.00 0.02 0.02 87 1015.3
20260506025407 71 68 0.0 0.0 0.00 0.02 0.02 86 1015.4
20260506024905 71 45 0.0 0.0 0.00 0.02 0.02 86 1015.3
20260506024630 72 45 0.0 0.0 0.00 0.02 0.02 86 1015.2
20260506023855 72 45 0.0 1.0 0.00 0.02 0.02 86 1015.2
20260506023619 72 74 0.0 3.0 0.00 0.02 0.02 86 1015.1
20260506022841 72 74 1.0 5.0 0.00 0.02 0.02 86 1015.1
20260506022334 72 62 1.0 5.0 0.00 0.02 0.02 86 1015.1
20260506022105 72 91 0.0 4.0 0.00 0.02 0.02 86 1015.1
20260506021332 72 70 0.0 2.0 0.00 0.02 0.02 86 1015.1
20260506020313 72 62 0.0 4.0 0.00 0.02 0.02 85 1015.1
20260506015804 73 75 0.0 4.0 0.00 0.02 0.02 85 1015.2
20260506015257 73 65 0.0 3.0 0.00 0.02 0.02 84 1015.3
20260506014243 73 64 0.0 4.0 0.00 0.02 0.02 84 1015.5
20260506013731 73 66 0.0 4.0 0.00 0.02 0.02 84 1015.5
20260506013717 73 87 0.0 3.0 0.00 0.02 0.02 84 1015.5
20260506012705 73 105 0.0 3.0 0.00 0.02 0.02 84 1015.5
20260506012153 73 72 0.0 1.0 0.00 0.02 0.02 84 1015.5
20260506011642 73 96 0.0 2.0 0.00 0.02 0.02 84 1015.5
20260506011132 73 99 0.0 4.0 0.00 0.02 0.02 84 1015.5
20260506010853 73 82 0.0 4.0 0.00 0.02 0.02 84 1015.5
20260506010345 74 78 1.0 3.0 0.00 0.02 0.02 84 1015.5
20260506005555 74 58 1.0 5.0 0.00 0.02 0.02 84 1015.5
20260506005041 74 71 2.0 6.0 0.00 0.02 0.02 84 1015.4
20260506004532 74 58 1.0 6.0 0.00 0.02 0.02 83 1015.2
20260506004026 74 92 1.0 5.0 0.00 0.02 0.02 84 1015.2
20260506003514 74 78 1.0 5.0 0.00 0.02 0.02 83 1015.2
20260506003004 74 74 2.0 6.0 0.00 0.02 0.02 83 1015.2
20260506002452 74 58 3.0 6.0 0.00 0.02 0.02 83 1015.3
20260506002205 75 79 2.0 6.0 0.00 0.02 0.02 83 1015.2
20260506000914 75 51 3.0 8.0 0.00 0.02 0.02 82 1015.2
20260506000401 75 49 3.0 9.0 0.00 0.02 0.02 82 1015.1
20260506000111 75 73 3.0 9.0 0.00 0.02 0.02 82 1015.1
20260505235331 76 71 3.0 8.0 0.00 0.02 0.02 82 1015.1
20260505234821 76 77 2.0 8.0 0.00 0.02 0.02 82 1015.0
20260505234311 76 83 2.0 7.0 0.00 0.02 0.02 82 1015.0
20260505233758 76 60 2.0 6.0 0.00 0.02 0.02 82 1015.1
20260505232738 76 67 2.0 7.0 0.00 0.02 0.02 82 1014.9
20260505232500 76 84 2.0 7.0 0.00 0.02 0.02 82 1014.9
20260505231716 76 52 2.0 7.0 0.00 0.02 0.02 82 1014.9
20260505231204 76 63 3.0 7.0 0.00 0.02 0.02 82 1014.8
20260505230653 76 76 3.0 9.0 0.00 0.02 0.02 82 1014.9
20260505230143 76 55 3.0 9.0 0.00 0.02 0.02 82 1014.9
20260505225640 77 72 2.0 6.0 0.00 0.02 0.02 82 1014.9
20260505224909 77 85 2.0 7.0 0.00 0.02 0.02 82 1015.0
20260505224135 77 63 3.0 7.0 0.00 0.02 0.02 82 1014.9
20260505223636 77 79 3.0 12.0 0.00 0.02 0.02 82 1014.9
20260505223135 78 95 3.0 12.0 0.00 0.02 0.02 81 1014.8
20260505222636 78 116 2.0 9.0 0.00 0.02 0.02 81 1014.9
20260505222136 78 84 3.0 8.0 0.00 0.02 0.02 81 1014.9
20260505221636 78 78 3.0 8.0 0.00 0.02 0.02 81 1015.0
20260505221406 78 81 3.0 6.0 0.00 0.02 0.02 80 1014.9
20260505220635 78 72 3.0 7.0 0.00 0.02 0.02 80 1015.0
20260505220407 79 86 3.0 7.0 0.00 0.02 0.02 80 1014.9
20260505215633 79 70 2.0 6.0 0.00 0.02 0.02 79 1015.0
20260505215134 79 68 2.0 6.0 0.00 0.02 0.02 79 1014.9
20260505214632 80 71 1.0 6.0 0.00 0.02 0.02 79 1014.8
20260505214131 80 74 1.0 6.0 0.00 0.02 0.02 78 1014.8
20260505213629 80 63 0.0 4.0 0.00 0.02 0.02 78 1014.7